Location: Unspecified
(0.0000°N, 0.0000°E)
Time: 07:56:09
(UTC+00:00)

METEOR M2 - Pass Details

Date: 30 November 2022
Orbit: 818 x 827 km, 98.4° (Epoch: 01 February)

Event Time Altitude Azimuth Distance (km) Brightness Sun altitude
Rises 19:22:51 0° 202° (SSW) 3,360 ? -21.8°
Reaches altitude 10° 19:26:22 10° 226° (SW) 2,426 ? -22.6°
Maximum altitude 19:29:05 14° 257° (WSW) 2,146 ? -23.2°
Drops below altitude 10° 19:31:48 10° 288° (WNW) 2,423 ? -23.8°
Sets 19:35:20 0° 312° (NW) 3,353 ? -24.6°
